Weather History for PPIZ - September, 2013

Change the Weather History Date:

Wednesday, September 18, 2013

  Actual Average Record
Temperature  
Mean Temperature 28 °F -  
Max Temperature 32 °F 36 °F 50 °F (2010)
Min Temperature 24 °F 30 °F 24 °F (2013)
Degree Days  
Heating Degree Days 38    
Moisture  
Dew Point 24 °F    
Average Humidity 83    
Maximum Humidity 93    
Minimum Humidity 69    
Precipitation  
Precipitation 0.00 in - - ()
Sea Level Pressure  
Sea Level Pressure 30.06 in    
Wind  
Wind Speed 12 mph (NE)    
Max Wind Speed 21 mph    
Max Gust Speed -    
Visibility 10 miles    
Events      
Averages and records for this station are not official NWS values.
T = Trace of Precipitation, MM = Missing Value Source: NWS Daily Summary

Daily Weather History Graph

Daily Weather History Graph

Search for Another Location

Airport or City:

Trip Planner

Search our weather history database for the weather conditions in past years. The results will help you decide how hot, cold, wet, or windy it might be!

Date:

Astronomy

Sep. 18, 2013 Rise Set
Actual Time 8:18 AM AKDT 9:10 PM AKDT
Civil Twilight 7:16 AM AKDT 10:12 PM AKDT
Nautical Twilight 5:55 AM AKDT 11:32 PM AKDT
Astronomical Twilight 3:39 AM AKDT 1:37 AM AKDT
Moon 8:23 PM AKDT (9/18) 7:34 AM AKDT (9/18)
Length of Visible Light 14h 55m
Length of Day
12h 52m
Waxing Gibbous, 99% of the Moon is Illuminated
Sep 18
Waxing Gibbous
Sep 19
Full
Sep 26
Last Quarter
Oct 4
New
Oct 11
First Quarter

Hourly Weather History & Observations

Time (AKDT) Temp. Windchill Dew Point Humidity Pressure Visibility Wind Dir Wind Speed Gust Speed Precip Events Conditions
12:56 AM 24.1 °F 14.4 °F 21.0 °F 88% 30.16 in 10.0 mi NNE 9.2 mph - N/A   Clear
1:56 AM 26.1 °F 16.2 °F 22.1 °F 85% 30.15 in 10.0 mi NE 10.4 mph - N/A   Mostly Cloudy
2:56 AM 24.1 °F 15.2 °F 21.0 °F 88% 30.14 in 10.0 mi NE 8.1 mph - N/A   Partly Cloudy
3:56 AM 25.2 °F 15.7 °F 22.1 °F 88% 30.14 in 10.0 mi NNE 9.2 mph - N/A   Overcast
4:56 AM 26.1 °F 16.8 °F 22.1 °F 85% 30.13 in 10.0 mi NNE 9.2 mph - N/A   Overcast
5:56 AM 26.1 °F 16.2 °F 23.0 °F 88% 30.11 in 10.0 mi North 10.4 mph - N/A   Partly Cloudy
6:56 AM 24.8 °F 16.1 °F 23.0 °F 93% 30.10 in 10.0 mi NE 8.1 mph - N/A   Mostly Cloudy
7:56 AM 26.1 °F 15.6 °F 23.0 °F 88% 30.10 in 10.0 mi NNE 11.5 mph - N/A   Partly Cloudy
8:56 AM 28.0 °F 18.1 °F 25.2 °F 89% 30.10 in 10.0 mi NE 11.5 mph - N/A   Overcast
9:56 AM 29.1 °F 19.4 °F 26.1 °F 88% 30.09 in 10.0 mi NE 11.5 mph - 0.00 in   Overcast
10:56 AM 30.0 °F 18.3 °F 26.1 °F 85% 30.08 in 10.0 mi NE 17.3 mph - N/A   Overcast
11:21 AM 30.2 °F 18.9 °F 26.6 °F 86% 30.07 in 10.0 mi NE 16.1 mph - N/A   Overcast
11:56 AM 30.0 °F 20.0 °F 25.2 °F 82% 30.08 in 10.0 mi NE 12.7 mph - N/A   Overcast
12:09 PM 30.2 °F 18.5 °F 24.8 °F 80% 30.06 in 10.0 mi NE 17.3 mph - N/A   Overcast
12:16 PM 30.2 °F 18.9 °F 24.8 °F 80% 30.06 in 10.0 mi NE 16.1 mph - N/A   Overcast
12:56 PM 30.2 °F 18.9 °F 23.0 °F 75% 30.06 in 10.0 mi NE 16.1 mph - N/A   Overcast
1:56 PM 30.0 °F 19.1 °F 22.1 °F 72% 30.06 in 10.0 mi NE 15.0 mph - N/A   Overcast
2:19 PM 30.2 °F 19.8 °F 23.0 °F 75% 30.04 in 10.0 mi ENE 13.8 mph - N/A   Overcast
2:42 PM 30.2 °F 19.8 °F 23.0 °F 75% 30.04 in 10.0 mi NE 13.8 mph - N/A   Overcast
2:56 PM 30.0 °F 19.5 °F 24.1 °F 79% 30.05 in 10.0 mi NE 13.8 mph - N/A   Overcast
3:39 PM 30.2 °F 20.2 °F 24.8 °F 80% 30.03 in 10.0 mi NNE 12.7 mph - N/A   Overcast
3:56 PM 30.2 °F 20.2 °F 26.6 °F 86% 30.02 in 10.0 mi North 12.7 mph - N/A   Overcast
4:56 PM 30.0 °F 20.0 °F 26.1 °F 85% 30.03 in 7.0 mi NE 12.7 mph - N/A   Overcast
5:56 PM 31.1 °F 20.1 °F 23.0 °F 72% 30.01 in 10.0 mi NE 16.1 mph - N/A   Overcast
6:12 PM 30.2 °F 18.5 °F 21.2 °F 69% 30.00 in 10.0 mi NNE 17.3 mph - N/A   Overcast
6:28 PM 30.2 °F 17.4 °F 21.2 °F 69% 30.00 in 10.0 mi NNE 20.7 mph - N/A   Overcast
6:56 PM 30.2 °F 17.8 °F 21.2 °F 69% 29.99 in 10.0 mi NNE 19.6 mph - N/A   Overcast
7:56 PM 28.0 °F 18.1 °F 24.1 °F 85% 30.01 in 10.0 mi NE 11.5 mph - N/A   Overcast
8:56 PM 27.1 °F 18.2 °F 24.1 °F 88% 30.00 in 10.0 mi NE 9.2 mph - 0.00 in   Overcast
9:49 PM 26.6 °F 18.2 °F 24.8 °F 93% 29.98 in 9.0 mi NE 8.1 mph - 0.00 in   Overcast
9:56 PM 26.6 °F 16.8 °F 24.8 °F 93% 29.98 in 10.0 mi NE 10.4 mph - N/A   Overcast
10:56 PM 27.1 °F 18.9 °F 24.1 °F 88% 29.98 in 10.0 mi NE 8.1 mph - 0.00 in   Mostly Cloudy
11:56 PM 27.1 °F 19.7 °F 24.1 °F 88% 29.98 in 7.0 mi NE 6.9 mph - N/A   Overcast